Location: Rounton
(54.4000°N, 1.3500°W)
Time: 13:58:28
(UTC+00:00)

Transit 4A - Pass Details

Date: 04 December 2021
Orbit: 864 x 981 km, 66.8° (Epoch: 18 January)

Event Time Altitude Azimuth Distance (km) Brightness Sun altitude
Rises 03:07:07 0° 317° (NW) 3,588 - -42.0°
Reaches altitude 10° 03:09:38 10° 319° (NW) 2,659 - -41.7°
Maximum altitude 03:15:52 78° 46° (NE) 983 - -40.8°
Exits shadow 03:21:22 14° 133° (SE) 2,399 10.2 -40.1°
Drops below altitude 10° 03:22:14 10° 134° (SE) 2,713 10.5 -39.9°
Sets 03:24:49 0° 135° (SE) 3,666 11.3 -39.6°
